Regional Weather Roundup
Issued by NWS Austin/San Antonio, TX

Home | Current Version | Previous Version | Text Only | Print | Product List | Glossary On
Versions: 1 2 3 4 5 6 7 8 9 10 11 12 13 14 15 16 17 18 19 20 21 22 23 24 25 26 27 28 29 30 31 32 33 34 35 36 37 38 39 40 41 42 43 44 45 46 47 48 49 50
000
ASUS44 KEWX 201702
RWREWX
SOUTH TEXAS REGIONAL WEATHER ROUNDUP
NATIONAL WEATHER SERVICE AUSTIN/SAN ANTONIO TX
1200 PM CDT WED SEP 20 2017

NOTE: "FAIR" INDICATED FEW OR NO CLOUDS BELOW 12,000 FEET WITH NO
SIGNIFICANT WEATHER AND/OR OBSTRUCTIONS TO VISIBILITY.

* - THESE STATIONS ARE NOT NWS OR FAA STATIONS...AND ARE NOT SUBJECT
    TO NWS AND FAA QUALITY CONTROL.

TXZ171-172-183>190-201800-
TEXAS HILL COUNTRY AND EDWARDS PLATEAU

CITY           SKY/WX    TMP DP  RH WIND       PRES   REMARKS
JUNCTION       SUNNY     89  70  53 S13G21    29.94F HX  94
*LLANO           N/A     90  70  51 E10G16    29.96F HX  95
BURNET         SUNNY     87  70  56 S15       29.97S HX  92
*HORSESHOE BAY SUNNY     89  70  53 S9G17     29.94F HX  93
*KERRVILLE     CLOUDY    82  74  77 S13       29.99R
*FREDERICKSBRG PTSUNNY   84  68  58 SW12      29.98S
*ROCKSPRINGS   NOT AVBL
*BOERNE STAGE  CLOUDY    82  70  65 S10       29.99S
*CASTROVILLE   CLOUDY    89  69  52 SE7       29.96S HX  93
HONDO          CLOUDY    87  73  62 S8        29.95S HX  94
*UVALDE        CLOUDY    84  74  71 S9        29.95S HX  90
DEL RIO        SUNNY     89  73  59 SE14      29.90S HX  97
LAUGHLIN AFB   MOSUNNY   89  73  59 SE14      29.91S HX  96
CARRIZO SPRGS  SUNNY     90  73  58 SE8       29.90F HX  98
*EAGLE PASS    SUNNY     88  72  58 VRB6      29.91S HX  94
$$

TXZ173-191>194-202-209-217>225-228-201800-
CENTRAL AND SOUTH CENTRAL TEXAS

CITY           SKY/WX    TMP DP  RH WIND       PRES   REMARKS
GEORGETOWN     SUNNY     88  72  58 S17       29.95F HX  94
AUSTIN/BERGSTM MOSUNNY   88  73  61 S16       29.93F HX  95
AUSTIN/MABRY   MOSUNNY   89  72  56 S8G17     29.95S HX  96
*AUSTIN/EXEC   PTSUNNY   86  73  66 S10G20    29.95S HX  93
*LAGO VISTA    MOSUNNY   87  71  57 S14G23    29.96F HX  93
SAN MARCOS     MOSUNNY   89  74  60 S13       29.95S HX  98
NEW BRAUNFELS  MOSUNNY   90  73  57 S13       29.93F HX  98
RANDOLPH AFB   MOSUNNY   86  74  67 S10       29.94F HX  95
PT SAN ANTONIO DRIZZLE   89  73  58 S9        29.93S HX  96
SAN ANTONIO    PTSUNNY   87  72  60 S10       29.95F HX  93
STINSON FIELD  MOSUNNY   91  74  57 SE13      29.92F HX 100
*LA GRANGE     PTSUNNY   90  76  62 S8        29.93S HX 101
*GIDDINGS      MOSUNNY   88  72  58 S13       29.96S HX  94
*GONZALES      MOSUNNY   89  77  67 S12       29.93F HX 102
$$

TXZ163>164-176>182-195>201-210>213-226-227-235-201800-
SOUTHEAST TEXAS

CITY           SKY/WX    TMP DP  RH WIND       PRES   REMARKS
COLLEGE STN    MOSUNNY   87  75  67 S12       29.95F HX  96
*BRYAN         PTSUNNY   88  74  62 S13       29.97S HX  96
*CALDWELL      PTSUNNY   89  75  64 S15G22    29.96S HX  98
*CROCKETT      CLOUDY    86  73  66 SW9       29.99S HX  93
*BRENHAM       PTSUNNY   90  74  59 S12G17    29.96F HX  99
HUNTSVILLE     MOSUNNY   88  72  58 SW9       29.97S HX  94
CONROE         MOSUNNY   90  73  57 S10       29.96F HX  98
HOUSTON BUSH   PTSUNNY   89  74  60 S8        29.96S HX  98
HOUSTON HOBBY  MOSUNNY   90  75  61 S6        29.95F HX 100
*HOUSTON SW AP PTSUNNY   86  76  71 SW5       29.96F HX  96
PEARLAND       MOSUNNY   88  74  63 S9        29.98S HX  96
HOUSTON HOOKS  MOSUNNY   88  75  65 S7        29.96F HX  97
ELLINGTON FLD  PTSUNNY   88  77  70 SE8       29.98S HX 100
SUGAR LAND     MOSUNNY   91  74  57 S14       29.95F HX 100
*HOUSTON EXEC  MOSUNNY   90  75  62 S12       29.97F HAZE    HX 100
*CLEVELAND MUN MOSUNNY   86  74  66 S5        29.98S HX  93
*WHARTON       MOSUNNY   89  71  53 S12       29.96S HX  95
*COLUMBUS      FAIR      89  74  61 S10       29.96F HX  97
*EAGLE LAKE    PTSUNNY   91  78  66 S9        29.94F HX 106
$$

TXZ214>216-236>238-201800-
THE UPPER TEXAS COAST

CITY           SKY/WX    TMP DP  RH WIND       PRES   REMARKS
*ORANGE        PTSUNNY   80  78  95 SW5       30.01F
PORT ARTHUR    HVY RAIN  79  76  90 S7        29.98F FOG
GALVESTON      PTSUNNY   90  80  72 S14       29.98S HX 107
ANGLETON       SUNNY     90  77  65 S17       29.96S HX 103
*BAY CITY      CLOUDY    89  77  67 S12       29.95F HAZE    HX 102
PALACIOS       MOSUNNY   87  77  72 S14       29.95S HX  99
$$

TXZ229>234-239>247-201800-
TEXAS COASTAL BEND AND RIO GRANDE PLAINS

CITY           SKY/WX    TMP DP  RH WIND       PRES   REMARKS
VICTORIA       MOSUNNY   90  73  57 S14       29.94S HX  98
*BEEVILLE      PTSUNNY   91  65  42 S10G16    29.93F HX  93
ROCKPORT       MOSUNNY   90  78  68 SE13      29.93F HX 104
*PORT ARANSAS  NOT AVBL
*PORT LAVACA   NOT AVBL
*INGLESIDE     NOT AVBL
CORPUS CHRISTI PTSUNNY   93  74  53 SE18      29.92F HX 103
CORPUS NAS     PTSUNNY   92  78  63 S14G23    29.93S HX 107
*ROBSTOWN      MOSUNNY   90  73  58 S8G20     29.92F HX  98
ALICE          PTSUNNY   92  71  50 S13       29.91S HX  98
KINGSVILLE NAS PTSUNNY   94  75  54 S13G23    29.91S HX 105
COTULLA        MOSUNNY   91  71  51 S13G18    29.91F HX  97
*FAITH RANCH   SUNNY     93  72  49 SE10      29.91F HX 100
LAREDO         SUNNY     93  73  52 SE13      29.90F HX 102
$$

TXZ248>255-201800-
DEEP SOUTH TEXAS

CITY           SKY/WX    TMP DP  RH WIND       PRES   REMARKS
BROWNSVILLE    MOSUNNY   87  77  72 S16G25    29.91F HX  99
PORT ISABEL    MOSUNNY   92  76  59 S20G29    29.89F HX 104
*SOUTH PADRE   NOT AVBL
HARLINGEN      MOSUNNY   95  75  52 S17       29.88F HX 107
*HEBBRONVILLE  MOSUNNY   91  67  46 SE13G18   29.93S HX  94
MCALLEN        MOSUNNY   95  71  45 SE15      29.90S HX 102
*WESLACO       MOSUNNY   93  71  48 S15G23    29.89F HX 100
FALFURRIAS     MOSUNNY  -38  32 100 S10       29.91S WCI -63
EDINBURG       MOSUNNY   94  70  45 S13       29.90F HX 100
*ZAPATA        MOSUNNY   92  69  46 SE12      29.89F HX  97
$$

TXZ213>215-236>238-242>244-246-247-251-254-255-201800-
CMAN STATIONS

STATION/POSITION TIME  TEMP    WIND        PRES    WAVE
                       AIR SEA DIR/SP/G            HT/PER
                 (UTC) (F)     (DEG/KT/KT) (MB)    (FT/S)
SABINE PASS      1624   85 84  180/  9/ 13 1017.2
SEA RIM ST PARK  1600   85     180/  9/ 12 1016.1
NORTH JETTY/GLS  1624      84  170/ 13/ 15 1014.6
EAGLE POINT      1624   85 84  190/ 14/ 18 1014.9
MORGANS POINT    1624   87 83  150/  6/ 10 1014.6
PORT O`CONNOR    1624   84 85  170/ 13/ 15 1013.9
MALAQUITE BEACH  1624   85 84  150/ 14/ 15 1013.1
BAFFIN BAY       1624   85 83  150/ 11/ 14 1013.4
PORT ISABEL      1624   86 85  150/ 15/ 18 1013.2
$$




USA.gov is the U.S. government's official web portal to all federal, state and local government web resources and services.